Regional Weather Roundup
Issued by NWS Little Rock, AR

Home | Current Version | Previous Version | Text Only | Print | Product List | Glossary Off
Versions: 1 2 3 4 5 6 7 8 9 10 11 12 13 14 15 16 17 18 19 20 21 22 23 24 25 26 27 28 29 30 31 32 33 34 35 36 37 38 39 40 41 42 43 44 45 46 47 48 49 50

053
ASUS44 KLZK 251505
RWRLZK

WEATHER ROUNDUP FOR ARKANSAS
NATIONAL WEATHER SERVICE LITTLE ROCK AR
1000 AM CDT SUN JUN 25 2017

NOTE: "FAIR" INDICATES FEW OR NO CLOUDS BELOW 12,000 FEET WITH NO
SIGNIFICANT WEATHER AND/OR OBSTRUCTIONS TO VISIBILITY.

ARZ001-003-010-029-251600-
NORTHWEST ARKANSAS

CITY           SKY/WX    TMP DP  RH WIND       PRES   REMARKS
FAYETTEVILLE   SUNNY     75  55  49 VRB3      30.30S
FORT SMITH     SUNNY     77  61  57 VRB3      30.26F
HARRISON       SUNNY     75  49  39 CALM      30.31S
BENTONVILLE    SUNNY     75  50  41 CALM      30.31S
ROGERS         MOSUNNY   76  54  46 E3        30.31
SILOAM SPGS    SUNNY     75  55  50 NE3       30.30R
HIGHFILL       SUNNY     77  54  44 CALM      30.31R
SPRINGDALE     SUNNY     75  52  43 CALM      30.32F
$$

ARZ004-005-016-251600-
NORTH CENTRAL ARKANSAS

CITY           SKY/WX    TMP DP  RH WIND       PRES   REMARKS
BATESVILLE     SUNNY     73  57  56 W3        30.28S
FLIPPIN        SUNNY     73  55  53 S3        30.27S
MTN HOME       SUNNY     72  57  59 VRB3      30.29S
$$

ARZ040-041-251600-
WEST CENTRAL ARKANSAS

CITY           SKY/WX    TMP DP  RH WIND       PRES   REMARKS
MENA           SUNNY     79  57  47 E7        30.29R
MOUNT IDA      SUNNY     76  58  53 VRB3      30.26R
$$

ARZ009-017-025-026-028-251600-
NORTHEAST ARKANSAS

CITY           SKY/WX    TMP DP  RH WIND       PRES   REMARKS
JONESBORO      SUNNY     78  56  46 VRB6      30.25S
WALNUT RIDGE   SUNNY     73  57  56 NW3       30.27S
BLYTHEVILLE    SUNNY     77  62  59 VRB3      30.26R
$$

ARZ022-023-033-042-044-251600-
CENTRAL ARKANSAS

CITY           SKY/WX    TMP DP  RH WIND       PRES   REMARKS
LITTLE ROCK    MOSUNNY   77  62  59 NE3       30.26S
N LITTLE ROCK    N/A     77  63  61 NE6       30.26R
JACKSONVILLE   SUNNY     77  60  55 NE6       30.25S
CONWAY           N/A     75  59  57 CALM      30.25S
SEARCY         SUNNY     78  58  49 NE5       30.28S
HOT SPRINGS    SUNNY     79  56  45 SE6       30.27R
RUSSELLVILLE   SUNNY     77  59  53 NW3       30.26S
CLINTON        FAIR      75  61  60 CALM      30.28S
$$

ARZ036-251600-
EAST ARKANSAS

CITY           SKY/WX    TMP DP  RH WIND       PRES   REMARKS
WEST MEMPHIS   SUNNY     78  58  49 VRB3      30.24S
$$

ARZ050-053-066-070-073-251600-
SOUTHWEST ARKANSAS

CITY           SKY/WX    TMP DP  RH WIND       PRES   REMARKS
CAMDEN         SUNNY     77  64  65 N7        30.25S
TEXARKANA      MOSUNNY   75  65  70 E7        30.25R
EL DORADO      CLOUDY    73  65  75 E6        30.25R
DE QUEEN       MOSUNNY   78  61  55 E10       30.24R
$$

ARZ056-057-069-251600-
SOUTHEAST ARKANSAS

CITY           SKY/WX    TMP DP  RH WIND       PRES   REMARKS
PINE BLUFF     SUNNY     77  60  55 E6        30.26R
STUTTGART      SUNNY    N/A N/A N/A E6        30.26S
MONTICELLO     SUNNY     78  61  55 NE8       30.25R

$$






USA.gov is the U.S. government's official web portal to all federal, state and local government web resources and services.